Flag for Austria Weather past 2 weeks in Klagenfurt, Carinthia, Austria

Now
55 °F

Mostly cloudy.


Feels Like: 52 °F
Forecast: 40 / 55 °F
Wind: 13 mph from North

Location: Klagenfurt-Flughafen

Current Time: Oct 23, 2014 at 10:49:49 PM

Latest Report: Oct 23, 2014 at 9:50 PM


Visibility: N/A

Pressure: 29.92 "Hg

Humidity: 44%

Dew point: 34 °F

Location of KlagenfurtLocation

Historic Weather in Klagenfurt — Graph

°F

Klagenfurt temperature yesterday

Maximum temperature yesterday: 55 °F (at 12:20 AM)
Minimum temperature yesterday: 37 °F (at 11:20 PM)
Average temperature yesterday: 47 °F

Past Weeks' High & Low Weather Summary

 TemperatureHumidityPressure
High77 °F (Oct 11, 2:50 PM)100% (Oct 11, 2:50 AM)30.36 "Hg (Oct 11, 2:50 AM)
Low37 °F (Oct 22, 11:20 PM)35% (Oct 22, 1:50 PM)29.59 "Hg (Oct 21, 11:50 PM)
Average57 °F79%29.98 "Hg
* Reported Oct 8 9:20 PM — Oct 23 9:50 PM, Klagenfurt, Weather by CustomWeather, © 2014

Note: Actual official high and low records may vary slightly from our data, if they occured in-between our weather recording intervals... More about our weather records

Advertising

Klagenfurt weather history for previous 24 hours

 ConditionsComfort  
Time TempWeatherWind HumidityBarometerVisibility
9:50 PM
Oct 23
55 °FMostly cloudy.13 mph44%29.92 "HgN/A
9:20 PM55 °FMostly cloudy.12 mph44%29.92 "HgN/A
8:50 PM55 °FPartly cloudy.13 mph44%29.89 "HgN/A
8:20 PM55 °FPassing clouds.10 mph44%29.89 "HgN/A
7:50 PM55 °FPartly cloudy.21 mph44%29.89 "HgN/A
7:20 PM52 °FPartly cloudy.14 mph62%29.89 "HgN/A
6:50 PM48 °FPartly sunny.3 mph76%29.89 "HgN/A
6:20 PM48 °FPartly sunny.3 mph76%29.89 "HgN/A
5:50 PM46 °FBroken clouds.3 mph87%29.86 "HgN/A
5:20 PM46 °FBroken clouds.5 mph87%29.86 "HgN/A
4:50 PM48 °FBroken clouds.3 mph82%29.86 "HgN/A
4:20 PM48 °FBroken clouds.3 mph76%29.86 "HgN/A
3:50 PM46 °FPartly sunny.2 mph82%29.83 "HgN/A
3:20 PM46 °FSprinkles. Partly sunny.2 mph87%29.83 "HgN/A
2:50 PM46 °FSprinkles. Partly sunny.1 mph82%29.83 "HgN/A
2:20 PM46 °FSprinkles. Partly sunny.3 mph82%29.83 "HgN/A
1:50 PM46 °FPartly sunny.5 mph82%29.80 "HgN/A
1:20 PM46 °FSprinkles. Partly sunny.5 mph82%29.80 "HgN/A
12:50 PM46 °FPartly sunny.3 mph82%29.83 "HgN/A
12:20 PM46 °FPartly sunny.2 mph76%29.83 "HgN/A
11:50 AM45 °FPartly sunny.2 mph81%29.83 "HgN/A
11:20 AM43 °FBroken clouds.3 mph87%29.80 "HgN/A
10:50 AM43 °FPartly sunny.3 mph87%29.80 "HgN/A
10:20 AM41 °FBroken clouds.3 mph87%29.80 "HgN/A
9:50 AM41 °FBroken clouds.6 mph87%29.80 "HgN/A
9:20 AM41 °FLight rain. Broken clouds.5 mph87%29.80 "HgN/A
8:50 AM41 °FLight rain. Broken clouds.2 mph87%29.77 "HgN/A
8:20 AM39 °FLight rain. Partly cloudy.3 mph93%29.77 "HgN/A
7:50 AM39 °FPartly cloudy.3 mph93%29.77 "HgN/A
7:20 AM39 °FLight rain. Mostly cloudy.5 mph87%29.74 "HgN/A
6:50 AM39 °FLight rain. Passing clouds.6 mph87%29.77 "HgN/A
6:20 AM39 °FLight rain. Passing clouds.5 mph87%29.77 "HgN/A
5:50 AM39 °FLight rain. Passing clouds.3 mph87%29.77 "HgN/A
5:20 AM39 °FLight rain. Passing clouds.5 mph87%29.77 "HgN/A
4:50 AM39 °FLight rain. Passing clouds.5 mph81%29.77 "HgN/A
4:20 AM39 °FLight rain. Passing clouds.5 mph81%29.77 "HgN/A
3:50 AM39 °FPassing clouds.5 mph81%29.77 "HgN/A
3:20 AM37 °FPassing clouds.3 mph87%29.77 "HgN/A
2:50 AM37 °FPartly cloudy.5 mph87%29.77 "HgN/A
2:20 AM37 °FPassing clouds.5 mph87%29.77 "HgN/A
1:50 AM37 °FPassing clouds.3 mph87%29.77 "HgN/A
1:20 AM37 °FPartly cloudy.2 mph87%29.77 "HgN/A
12:50 AM37 °FClear.6 mph87%29.77 "Hg10 mi
12:20 AM37 °FPassing clouds.6 mph81%29.77 "HgN/A
11:50 PM
Oct 22
37 °FPassing clouds.3 mph81%29.80 "HgN/A
11:20 PM37 °FPassing clouds.3 mph81%29.80 "HgN/A
10:50 PM39 °FPassing clouds.3 mph75%29.80 "HgN/A
10:20 PM39 °FPassing clouds.5 mph75%29.80 "HgN/A
Weather by CustomWeather, © 2014

See weather overviewHow to use our weather pages